Regional Weather Roundup
Issued by NWS Goodland, KS

Home | Current Version | Previous Version | Graphics & Text | Print | Product List | Glossary On
Versions: 1 2 3 4 5 6 7 8 9 10 11 12 13 14 15 16 17 18 19 20 21 22 23 24 25 26 27 28 29 30 31 32 33 34 35 36 37 38 39 40 41 42 43 44 45 46 47 48 49 50
000
ASUS43 KGLD 021308
RWRGLD

GOODLAND FORECAST AREA HOURLY WEATHER ROUNDUP
NATIONAL WEATHER SERVICE GOODLAND KS
700 AM MDT TUE SEP 02 2014

...OFFICIAL OBSERVATIONS...

CITY           SKY/WX    TMP DP  RH WIND       PRES   REMARKS
GOODLAND KS    FOG       58  58 100 S12       30.11R VSB 1/4
HILL CITY KS   CLEAR     58  56  93 NW3       30.06R
IMPERIAL NEB   CLEAR     51  48  89 W3        30.07R
MCCOOK NEB     CLEAR     53  52  96 SW5       30.07R
AKRON CO       CLEAR     49  46  90 MISG      30.11S
BURLINGTON CO  PTCLDY    54  51  90 S6        30.12R
LIMON CO       CLOUDY    53  48  83 CALM      30.16R
$$

...UNOFFICIAL OBSERVATIONS...

CITY           SKY/WX    TMP DP  RH WIND       PRES   REMARKS
COLBY KS       CLEAR     61  61 100 SE6       30.10R
NORTON KS      CLEAR     55  54  94 SW5       30.05R
SHARON SPRINGS   N/A     61  60  95 CALM        N/A
WAKEENEY KS      N/A     59  56  92 MISG        N/A
KIT CARSON CO    N/A     57  53  85 CALM        N/A
YUMA CO          N/A     49  47  92 CALM        N/A
$$



USA.gov is the U.S. government's official web portal to all federal, state and local government web resources and services.